Check out our new BloomSky Weather System.

Active alerts

Galveston, TX
  Details for Galveston, TX Coastal Flood Advisory  +2 additional alerts
Houston, TX
  Details for Houston, TX Flash Flood Watch
Fort Bend, TX
  Details for Fort Bend, TX Flash Flood Watch


Thunder radar  blitzortung!


Rain radar more information rain snow radar


Visit our other weather sites:

Template documentation
and downloads

And another site



Weather Underground History page Text

Daily Summary for March 4, 2017 Units:  English    Metric   Both
« Previous Day
Next Day »
Daily Weekly Monthly Yearly Custom
  High: Low: Average:
Temperature: TemperatureF °F 54.3 °F 58.3 °F
Dew Point: DewpointF °F 45.1 °F 52 °F
Humidity: Humidity % 64 % 80 %
Wind Speed: WindSpeedMPH mph 0.0 mph 1.4 mph
Wind Gust: WindSpeedGustMPH mph - -
Wind:- - ESE
Pressure: PressureIn in 30.22 in -
Precipitation: 0.10 in    
Historical Graphs
 
 
Tabular Data for March 4, 2017
Time Temperature Dew Point Pressure Wind Wind Speed Wind Gust Humidity Rainfall Rate (Hourly)
TemperatureF °F DewpointF °F PressureIn in Calm     Humidity % HourlyPrecipIn in
00:04 56.8 °F 45.1 °F 30.43 in Calm     65 % 0.00 in
00:09 56.8 °F 45.7 °F 30.43 in Calm     66 % 0.00 in
00:14 56.8 °F 46.0 °F 30.43 in Calm   1.0 mph 67 % 0.00 in
00:19 56.8 °F 46.0 °F 30.43 in Calm   1.0 mph 67 % 0.00 in
00:24 56.7 °F 46.2 °F 30.43 in Calm   1.0 mph 68 % 0.00 in
00:29 56.3 °F 45.9 °F 30.43 in Calm   1.0 mph 68 % 0.00 in
00:34 56.1 °F 46.0 °F 30.43 in Calm   1.0 mph 69 % 0.00 in
00:39 55.9 °F 45.9 °F 30.43 in Calm     69 % 0.00 in
00:44 55.8 °F 46.0 °F 30.42 in Calm     70 % 0.00 in
00:49 55.8 °F 46.6 °F 30.43 in Calm     71 % 0.00 in
00:54 55.8 °F 46.9 °F 30.42 in Calm   1.0 mph 72 % 0.00 in
00:59 55.9 °F 47.1 °F 30.42 in Calm   1.0 mph 72 % 0.00 in
01:04 55.9 °F 47.1 °F 30.42 in Calm   1.0 mph 72 % 0.00 in
01:09 55.9 °F 47.1 °F 30.42 in Calm   1.0 mph 72 % 0.00 in
01:14 56.1 °F 47.3 °F 30.42 in Calm   1.0 mph 72 % 0.00 in
01:19 56.5 °F 47.5 °F 30.42 in Calm     72 % 0.00 in
01:24 56.5 °F 47.5 °F 30.42 in Calm   1.0 mph 72 % 0.00 in
01:29 56.5 °F 47.5 °F 30.42 in Calm   1.0 mph 72 % 0.00 in
01:34 56.7 °F 47.7 °F 30.41 in Calm   1.0 mph 72 % 0.00 in
01:39 56.7 °F 47.7 °F 30.41 in Calm     72 % 0.00 in
01:44 56.7 °F 47.7 °F 30.41 in Calm   1.0 mph 72 % 0.00 in
01:50 56.7 °F 47.7 °F 30.41 in Calm   1.0 mph 72 % 0.00 in
01:55 56.7 °F 47.7 °F 30.41 in Calm   1.0 mph 72 % 0.00 in
02:00 56.5 °F 47.5 °F 30.41 in Calm   1.0 mph 72 % 0.00 in
02:05 56.3 °F 47.8 °F 30.40 in Calm   1.0 mph 73 % 0.00 in
02:10 56.3 °F 47.8 °F 30.40 in Calm   1.0 mph 73 % 0.00 in
02:15 56.1 °F 47.7 °F 30.40 in Calm   1.0 mph 73 % 0.00 in
02:20 56.1 °F 48.0 °F 30.40 in Calm     74 % 0.00 in
02:25 55.9 °F 47.8 °F 30.40 in Calm     74 % 0.00 in
02:30 56.1 °F 48.0 °F 30.40 in Calm     74 % 0.00 in
02:35 56.1 °F 48.0 °F 30.40 in Calm     74 % 0.00 in
02:40 55.9 °F 47.8 °F 30.40 in Calm     74 % 0.00 in
02:45 55.9 °F 47.8 °F 30.40 in Calm     74 % 0.00 in
02:50 55.9 °F 47.8 °F 30.40 in Calm     74 % 0.00 in
02:55 55.8 °F 47.7 °F 30.40 in Calm     74 % 0.00 in
03:00 55.8 °F 47.7 °F 30.40 in Calm     74 % 0.00 in
03:05 55.8 °F 48.0 °F 30.39 in Calm     75 % 0.00 in
03:10 55.8 °F 48.4 °F 30.39 in Calm   1.0 mph 76 % 0.00 in
03:15 55.8 °F 48.4 °F 30.39 in Calm   1.0 mph 76 % 0.00 in
03:20 55.8 °F 48.4 °F 30.38 in Calm   1.0 mph 76 % 0.00 in
03:25 55.8 °F 48.4 °F 30.38 in Calm   1.0 mph 76 % 0.00 in
03:30 55.8 °F 48.4 °F 30.38 in Calm   1.0 mph 76 % 0.00 in
03:35 55.8 °F 48.4 °F 30.37 in Calm   1.0 mph 76 % 0.00 in
03:40 55.6 °F 48.2 °F 30.38 in Calm   1.0 mph 76 % 0.00 in
03:45 55.6 °F 48.6 °F 30.38 in Calm   1.0 mph 77 % 0.00 in
03:50 55.6 °F 48.6 °F 30.38 in Calm   1.0 mph 77 % 0.00 in
03:55 55.6 °F 48.6 °F 30.38 in Calm   2.0 mph 77 % 0.00 in
04:00 55.6 °F 48.6 °F 30.38 in Calm   2.0 mph 77 % 0.00 in
04:05 55.4 °F 48.7 °F 30.38 in Calm   2.0 mph 78 % 0.00 in
04:10 55.2 °F 48.6 °F 30.38 in Calm   1.0 mph 78 % 0.00 in
04:15 55.0 °F 48.4 °F 30.38 in Calm   1.0 mph 78 % 0.00 in
04:20 55.0 °F 48.4 °F 30.38 in Calm     78 % 0.00 in
04:25 54.7 °F 48.4 °F 30.38 in Calm     79 % 0.00 in
04:30 54.5 °F 48.2 °F 30.38 in Calm     79 % 0.00 in
04:36 54.5 °F 48.4 °F 30.38 in Calm     80 % 0.00 in
04:41 54.3 °F 48.6 °F 30.39 in Calm     81 % 0.00 in
04:46 54.3 °F 48.6 °F 30.39 in Calm     81 % 0.00 in
04:51 54.3 °F 48.6 °F 30.39 in Calm     81 % 0.00 in
04:56 54.5 °F 48.7 °F 30.39 in Calm     81 % 0.00 in
05:01 54.7 °F 48.9 °F 30.38 in Calm   1.0 mph 81 % 0.00 in
05:06 54.7 °F 48.9 °F 30.38 in East 1.0 mph 1.0 mph 81 % 0.00 in
05:11 54.9 °F 49.1 °F 30.38 in Calm   1.0 mph 81 % 0.00 in
05:16 54.9 °F 49.1 °F 30.39 in Calm   1.0 mph 81 % 0.00 in
05:21 54.9 °F 49.1 °F 30.39 in Calm   1.0 mph 81 % 0.00 in
05:26 55.0 °F 49.3 °F 30.39 in Calm     81 % 0.00 in
05:32 55.2 °F 49.5 °F 30.40 in Calm     81 % 0.00 in
05:37 55.4 °F 49.6 °F 30.40 in Calm     81 % 0.00 in
05:42 55.6 °F 49.8 °F 30.40 in Calm   1.0 mph 81 % 0.00 in
05:47 55.6 °F 49.8 °F 30.40 in Calm   1.0 mph 81 % 0.00 in
05:52 55.6 °F 49.8 °F 30.40 in Calm   1.0 mph 81 % 0.00 in
05:57 55.8 °F 50.0 °F 30.40 in Calm   1.0 mph 81 % 0.00 in
06:02 55.8 °F 50.0 °F 30.40 in Calm   1.0 mph 81 % 0.00 in
06:07 55.8 °F 50.0 °F 30.40 in Calm   1.0 mph 81 % 0.00 in
06:12 55.8 °F 50.0 °F 30.40 in Calm   1.0 mph 81 % 0.00 in
06:17 55.9 °F 50.2 °F 30.40 in Calm   1.0 mph 81 % 0.00 in
06:22 55.9 °F 50.2 °F 30.40 in Calm   1.0 mph 81 % 0.00 in
06:27 55.9 °F 50.2 °F 30.40 in Calm   2.0 mph 81 % 0.00 in
06:32 55.9 °F 50.2 °F 30.40 in East 1.0 mph 2.0 mph 81 % 0.00 in
06:37 55.9 °F 50.2 °F 30.40 in Calm   2.0 mph 81 % 0.00 in
06:42 56.1 °F 50.4 °F 30.40 in Calm   2.0 mph 81 % 0.00 in
06:47 56.1 °F 50.4 °F 30.40 in Calm   2.0 mph 81 % 0.00 in
06:52 56.1 °F 50.4 °F 30.40 in East 1.0 mph 1.0 mph 81 % 0.00 in
06:57 56.3 °F 50.2 °F 30.40 in Calm   2.0 mph 80 % 0.00 in
07:02 56.5 °F 50.4 °F 30.40 in ESE 1.0 mph 2.0 mph 80 % 0.00 in
07:07 56.7 °F 50.5 °F 30.40 in Calm   2.0 mph 80 % 0.00 in
07:12 56.7 °F 50.5 °F 30.40 in Calm   2.0 mph 80 % 0.00 in
07:17 56.8 °F 50.4 °F 30.40 in Calm   2.0 mph 79 % 0.00 in
07:22 57.0 °F 50.5 °F 30.41 in Calm   1.0 mph 79 % 0.00 in
07:27 57.0 °F 50.5 °F 30.41 in Calm   1.0 mph 79 % 0.00 in
07:32 57.4 °F 50.5 °F 30.41 in Calm   1.0 mph 78 % 0.00 in
07:37 57.6 °F 50.7 °F 30.41 in Calm   2.0 mph 78 % 0.00 in
07:42 57.6 °F 50.7 °F 30.41 in Calm   2.0 mph 78 % 0.00 in
07:47 57.7 °F 50.9 °F 30.41 in NE 2.0 mph 2.0 mph 78 % 0.00 in
07:52 57.7 °F 50.9 °F 30.41 in North 2.0 mph 3.0 mph 78 % 0.00 in
07:57 57.7 °F 50.9 °F 30.41 in NNE 1.0 mph 3.0 mph 78 % 0.00 in
08:02 57.7 °F 50.5 °F 30.41 in ENE 3.0 mph 3.0 mph 77 % 0.00 in
08:07 57.7 °F 50.5 °F 30.41 in NE 2.0 mph 4.0 mph 77 % 0.00 in
08:12 57.7 °F 50.5 °F 30.42 in NE 4.0 mph 5.0 mph 77 % 0.00 in
08:17 57.7 °F 50.2 °F 30.42 in North 1.0 mph 5.0 mph 76 % 0.00 in
08:22 57.7 °F 50.2 °F 30.42 in ENE 1.0 mph 5.0 mph 76 % 0.00 in
08:27 57.9 °F 50.4 °F 30.41 in Calm   5.0 mph 76 % 0.00 in
08:32 57.9 °F 50.4 °F 30.41 in East 2.0 mph 4.0 mph 76 % 0.00 in
08:37 57.9 °F 50.4 °F 30.41 in NW 2.0 mph 7.0 mph 76 % 0.00 in
08:42 58.1 °F 50.5 °F 30.42 in East 2.0 mph 7.0 mph 76 % 0.00 in
08:47 58.3 °F 50.4 °F 30.42 in NE 2.0 mph 7.0 mph 75 % 0.00 in
08:52 58.5 °F 50.5 °F 30.42 in East 3.0 mph 5.0 mph 75 % 0.00 in
08:57 58.5 °F 50.5 °F 30.42 in Calm   4.0 mph 75 % 0.00 in
09:02 58.5 °F 50.2 °F 30.41 in ESE 2.0 mph 6.0 mph 74 % 0.00 in
09:07 58.5 °F 50.2 °F 30.41 in NE 4.0 mph 7.0 mph 74 % 0.00 in
09:12 58.5 °F 50.5 °F 30.41 in ESE 2.0 mph 9.0 mph 75 % 0.00 in
09:17 58.5 °F 50.9 °F 30.41 in Calm   12.0 mph 76 % 0.00 in
09:22 58.5 °F 50.9 °F 30.41 in North 5.0 mph 12.0 mph 76 % 0.00 in
09:27 58.5 °F 51.3 °F 30.41 in East 4.0 mph 12.0 mph 77 % 0.00 in
09:32 58.5 °F 50.9 °F 30.41 in North 4.0 mph 6.0 mph 76 % 0.00 in
09:37 58.5 °F 50.9 °F 30.41 in NNW 3.0 mph 10.0 mph 76 % 0.00 in
09:42 58.6 °F 51.1 °F 30.42 in ENE 1.0 mph 10.0 mph 76 % 0.00 in
09:47 58.6 °F 51.1 °F 30.42 in North 5.0 mph 10.0 mph 76 % 0.00 in
09:52 58.8 °F 51.3 °F 30.42 in NNW 2.0 mph 7.0 mph 76 % 0.00 in
09:57 58.8 °F 50.9 °F 30.42 in ENE 3.0 mph 7.0 mph 75 % 0.00 in
10:02 59.0 °F 51.4 °F 30.42 in NE 3.0 mph 7.0 mph 76 % 0.00 in
10:07 59.2 °F 51.3 °F 30.42 in East 5.0 mph 6.0 mph 75 % 0.00 in
10:12 59.4 °F 51.4 °F 30.41 in East 2.0 mph 7.0 mph 75 % 0.00 in
10:17 59.7 °F 51.8 °F 30.41 in East 1.0 mph 7.0 mph 75 % 0.00 in
10:22 60.3 °F 51.6 °F 30.41 in ENE 3.0 mph 10.0 mph 73 % 0.00 in
10:27 60.4 °F 51.4 °F 30.41 in NE 4.0 mph 10.0 mph 72 % 0.00 in
10:32 60.6 °F 51.6 °F 30.41 in NNW 3.0 mph 11.0 mph 72 % 0.00 in
10:37 61.0 °F 51.1 °F 30.41 in ENE 2.0 mph 11.0 mph 70 % 0.00 in
10:42 61.0 °F 51.4 °F 30.42 in ESE 2.0 mph 11.0 mph 71 % 0.00 in
10:47 61.3 °F 51.8 °F 30.41 in ESE 4.0 mph 11.0 mph 71 % 0.00 in
10:48 61.3 °F 51.4 °F 30.41 in East 2.0 mph 11.0 mph 70 % 0.00 in
10:53 61.5 °F 51.3 °F 30.41 in SSW 2.0 mph 11.0 mph 69 % 0.00 in
10:58 61.7 °F 51.1 °F 30.41 in East 2.0 mph 7.0 mph 68 % 0.00 in
11:03 62.1 °F 51.8 °F 30.41 in North 1.0 mph 9.0 mph 69 % 0.00 in
11:08 62.4 °F 51.8 °F 30.41 in Calm   9.0 mph 68 % 0.00 in
11:13 62.8 °F 52.0 °F 30.41 in NE 2.0 mph 9.0 mph 68 % 0.00 in
11:18 63.1 °F 52.0 °F 30.41 in Calm   6.0 mph 67 % 0.00 in
11:23 63.7 °F 52.2 °F 30.40 in SE 4.0 mph 7.0 mph 66 % 0.00 in
11:28 63.7 °F 51.6 °F 30.40 in ESE 5.0 mph 9.0 mph 65 % 0.00 in
11:33 63.7 °F 52.2 °F 30.40 in NW 3.0 mph 9.0 mph 66 % 0.00 in
11:38 63.5 °F 51.4 °F 30.40 in ESE 1.0 mph 9.0 mph 65 % 0.00 in
11:43 63.3 °F 51.4 °F 30.40 in NNW 1.0 mph 9.0 mph 65 % 0.00 in
11:48 63.3 °F 51.8 °F 30.40 in SE 2.0 mph 11.0 mph 66 % 0.00 in
11:53 63.3 °F 51.8 °F 30.40 in NE 1.0 mph 11.0 mph 66 % 0.00 in
11:58 63.7 °F 51.6 °F 30.40 in NE 4.0 mph 11.0 mph 65 % 0.00 in
12:03 63.7 °F 51.6 °F 30.40 in NE 4.0 mph 11.0 mph 65 % 0.00 in
12:08 63.7 °F 51.6 °F 30.39 in NNE 3.0 mph 7.0 mph 65 % 0.00 in
12:13 63.7 °F 51.6 °F 30.38 in NE 3.0 mph 7.0 mph 65 % 0.00 in
12:18 63.7 °F 52.2 °F 30.38 in NNW 1.0 mph 7.0 mph 66 % 0.00 in
12:23 63.5 °F 52.0 °F 30.38 in East 2.0 mph 7.0 mph 66 % 0.00 in
12:28 63.7 °F 52.2 °F 30.37 in ESE 3.0 mph 10.0 mph 66 % 0.00 in
12:33 63.9 °F 52.3 °F 30.37 in East 1.0 mph 10.0 mph 66 % 0.00 in
12:38 63.9 °F 52.3 °F 30.37 in NE 3.0 mph 10.0 mph 66 % 0.00 in
12:44 64.0 °F 52.0 °F 30.37 in ENE 1.0 mph 8.0 mph 65 % 0.00 in
12:49 64.6 °F 52.9 °F 30.37 in NE 2.0 mph 7.0 mph 66 % 0.00 in
12:54 64.6 °F 52.5 °F 30.37 in East 3.0 mph 8.0 mph 65 % 0.00 in
12:59 64.6 °F 52.2 °F 30.36 in ESE 1.0 mph 8.0 mph 64 % 0.00 in
13:04 64.9 °F 52.5 °F 30.36 in ENE 2.0 mph 8.0 mph 64 % 0.00 in
13:09 64.9 °F 52.5 °F 30.37 in SE 7.0 mph 7.0 mph 64 % 0.00 in
13:14 64.8 °F 52.7 °F 30.37 in East 2.0 mph 8.0 mph 65 % 0.00 in
13:19 64.6 °F 52.5 °F 30.36 in ENE 2.0 mph 8.0 mph 65 % 0.00 in
13:24 64.4 °F 52.9 °F 30.37 in ESE 4.0 mph 8.0 mph 66 % 0.00 in
13:29 64.2 °F 52.7 °F 30.36 in SE 4.0 mph 7.0 mph 66 % 0.00 in
13:34 64.2 °F 53.4 °F 30.36 in East 2.0 mph 6.0 mph 68 % 0.00 in
13:39 64.2 °F 53.8 °F 30.36 in ENE 1.0 mph 6.0 mph 69 % 0.00 in
13:44 64.0 °F 54.1 °F 30.36 in ENE 1.0 mph 6.0 mph 70 % 0.00 in
13:49 63.9 °F 55.0 °F 30.36 in SE 4.0 mph 6.0 mph 73 % 0.00 in
13:54 63.7 °F 54.9 °F 30.36 in Calm   6.0 mph 73 % 0.00 in
13:59 63.3 °F 55.6 °F 30.36 in Calm   6.0 mph 76 % 0.01 in
14:04 63.1 °F 55.8 °F 30.35 in Calm   6.0 mph 77 % 0.01 in
14:09 62.8 °F 56.1 °F 30.35 in Calm   2.0 mph 79 % 0.02 in
14:14 62.4 °F 56.5 °F 30.35 in Calm   3.0 mph 81 % 0.02 in
14:19 62.2 °F 56.7 °F 30.34 in ENE 1.0 mph 3.0 mph 82 % 0.02 in
14:24 62.1 °F 56.8 °F 30.34 in Calm   3.0 mph 83 % 0.02 in
14:29 62.1 °F 57.2 °F 30.33 in NNE 2.0 mph 3.0 mph 84 % 0.02 in
14:34 61.9 °F 57.0 °F 30.33 in NE 1.0 mph 2.0 mph 84 % 0.02 in
14:39 61.9 °F 57.0 °F 30.32 in Calm   3.0 mph 84 % 0.03 in
14:44 61.9 °F 57.0 °F 30.32 in East 1.0 mph 4.0 mph 84 % 0.03 in
14:49 61.9 °F 57.0 °F 30.32 in North 2.0 mph 4.0 mph 84 % 0.03 in
14:54 61.5 °F 56.3 °F 30.32 in NNE 1.0 mph 4.0 mph 83 % 0.03 in
14:59 61.5 °F 56.7 °F 30.32 in SE 1.0 mph 8.0 mph 84 % 0.02 in
15:04 61.5 °F 56.3 °F 30.32 in ESE 2.0 mph 8.0 mph 83 % 0.02 in
15:09 61.5 °F 56.3 °F 30.32 in NNE 2.0 mph 8.0 mph 83 % 0.01 in
15:14 61.5 °F 56.3 °F 30.32 in SE 1.0 mph 7.0 mph 83 % 0.01 in
15:19 61.7 °F 56.5 °F 30.31 in Calm   7.0 mph 83 % 0.01 in
15:20 61.7 °F 56.5 °F 30.31 in Calm   5.0 mph 83 % 0.01 in
15:25 61.9 °F 56.7 °F 30.31 in Calm   6.0 mph 83 % 0.01 in
15:30 61.9 °F 56.7 °F 30.31 in East 4.0 mph 7.0 mph 83 % 0.01 in
15:35 61.7 °F 56.5 °F 30.31 in ESE 3.0 mph 7.0 mph 83 % 0.00 in
15:40 61.7 °F 56.5 °F 30.31 in ENE 2.0 mph 7.0 mph 83 % 0.00 in
15:45 61.7 °F 56.8 °F 30.31 in NNE 1.0 mph 7.0 mph 84 % 0.00 in
15:51 61.7 °F 56.8 °F 30.30 in East 2.0 mph 6.0 mph 84 % 0.00 in
15:56 61.7 °F 56.8 °F 30.30 in North 3.0 mph 7.0 mph 84 % 0.00 in
16:01 61.7 °F 56.5 °F 30.30 in NNW 3.0 mph 8.0 mph 83 % 0.00 in
16:06 61.5 °F 55.9 °F 30.30 in NE 3.0 mph 10.0 mph 82 % 0.00 in
16:11 61.3 °F 55.8 °F 30.30 in NE 3.0 mph 10.0 mph 82 % 0.00 in
16:16 61.3 °F 55.8 °F 30.30 in Calm   10.0 mph 82 % 0.00 in
16:21 61.3 °F 55.8 °F 30.30 in ENE 3.0 mph 7.0 mph 82 % 0.00 in
16:26 61.3 °F 55.4 °F 30.30 in Calm   7.0 mph 81 % 0.00 in
16:31 61.2 °F 54.9 °F 30.30 in East 2.0 mph 10.0 mph 80 % 0.00 in
16:36 61.2 °F 55.2 °F 30.30 in ESE 3.0 mph 10.0 mph 81 % 0.00 in
16:41 61.0 °F 55.0 °F 30.30 in East 2.0 mph 10.0 mph 81 % 0.00 in
16:46 61.0 °F 55.0 °F 30.30 in East 3.0 mph 8.0 mph 81 % 0.00 in
16:51 61.0 °F 55.0 °F 30.30 in ESE 1.0 mph 7.0 mph 81 % 0.00 in
16:56 60.6 °F 54.5 °F 30.30 in SE 5.0 mph 7.0 mph 80 % 0.00 in
17:01 60.6 °F 54.5 °F 30.30 in SSE 2.0 mph 8.0 mph 80 % 0.00 in
17:06 60.6 °F 54.5 °F 30.30 in ESE 2.0 mph 8.0 mph 80 % 0.00 in
17:11 60.6 °F 54.5 °F 30.30 in ESE 1.0 mph 8.0 mph 80 % 0.00 in
17:16 60.4 °F 54.5 °F 30.30 in ESE 2.0 mph 6.0 mph 81 % 0.00 in
17:21 60.1 °F 54.5 °F 30.31 in Calm   7.0 mph 82 % 0.00 in
17:26 59.7 °F 54.9 °F 30.31 in Calm   7.0 mph 84 % 0.01 in
17:31 59.4 °F 54.5 °F 30.31 in SE 1.0 mph 7.0 mph 84 % 0.01 in
17:36 59.2 °F 54.7 °F 30.32 in East 2.0 mph 6.0 mph 85 % 0.01 in
17:41 58.8 °F 55.0 °F 30.32 in ESE 2.0 mph 6.0 mph 87 % 0.01 in
17:46 58.6 °F 54.9 °F 30.32 in Calm   6.0 mph 87 % 0.02 in
17:51 58.5 °F 54.9 °F 30.32 in Calm   6.0 mph 88 % 0.02 in
17:56 58.3 °F 55.0 °F 30.32 in Calm   3.0 mph 89 % 0.02 in
18:01 58.3 °F 55.0 °F 30.33 in East 1.0 mph 2.0 mph 89 % 0.02 in
18:06 58.3 °F 55.4 °F 30.33 in Calm   2.0 mph 90 % 0.02 in
18:11 57.9 °F 55.0 °F 30.33 in Calm   3.0 mph 90 % 0.02 in
18:16 57.9 °F 55.0 °F 30.33 in Calm   3.0 mph 90 % 0.02 in
18:21 57.7 °F 54.9 °F 30.34 in Calm   3.0 mph 90 % 0.02 in
18:26 57.7 °F 54.9 °F 30.34 in Calm   3.0 mph 90 % 0.01 in
18:31 57.7 °F 55.2 °F 30.34 in ESE 1.0 mph 3.0 mph 91 % 0.01 in
18:36 57.6 °F 54.7 °F 30.34 in Calm   3.0 mph 90 % 0.01 in
18:41 57.6 °F 54.7 °F 30.34 in Calm   3.0 mph 90 % 0.01 in
18:46 57.6 °F 55.0 °F 30.33 in ESE 1.0 mph 3.0 mph 91 % 0.01 in
18:51 57.4 °F 54.5 °F 30.33 in East 4.0 mph 4.0 mph 90 % 0.01 in
18:56 57.4 °F 54.9 °F 30.33 in East 1.0 mph 6.0 mph 91 % 0.01 in
19:01 57.2 °F 54.7 °F 30.33 in ENE 5.0 mph 6.0 mph 91 % 0.02 in
19:06 57.0 °F 54.5 °F 30.32 in NE 5.0 mph 6.0 mph 91 % 0.02 in
19:11 56.8 °F 54.3 °F 30.32 in ENE 1.0 mph 8.0 mph 91 % 0.02 in
19:16 56.8 °F 54.5 °F 30.32 in ENE 3.0 mph 8.0 mph 92 % 0.02 in
19:17 56.8 °F 54.5 °F 30.32 in ESE 3.0 mph 8.0 mph 92 % 0.02 in
19:22 56.7 °F 54.3 °F 30.32 in East 2.0 mph 8.0 mph 92 % 0.02 in
19:27 56.7 °F 54.3 °F 30.32 in ENE 1.0 mph 5.0 mph 92 % 0.03 in
19:32 56.7 °F 54.3 °F 30.32 in ESE 2.0 mph 6.0 mph 92 % 0.03 in
19:37 56.5 °F 54.5 °F 30.31 in ENE 3.0 mph 6.0 mph 93 % 0.03 in
19:42 56.5 °F 54.5 °F 30.31 in NNW 1.0 mph 6.0 mph 93 % 0.04 in
19:47 56.3 °F 54.3 °F 30.31 in ENE 3.0 mph 5.0 mph 93 % 0.03 in
19:52 56.3 °F 54.3 °F 30.31 in SE 2.0 mph 6.0 mph 93 % 0.03 in
19:57 56.1 °F 54.1 °F 30.31 in North 2.0 mph 7.0 mph 93 % 0.03 in
20:02 56.3 °F 54.7 °F 30.30 in ENE 2.0 mph 7.0 mph 94 % 0.02 in
20:07 56.3 °F 54.7 °F 30.30 in West 1.0 mph 7.0 mph 94 % 0.02 in
20:12 56.3 °F 54.3 °F 30.30 in ENE 2.0 mph 7.0 mph 93 % 0.02 in
20:17 56.1 °F 54.1 °F 30.30 in ENE 1.0 mph 7.0 mph 93 % 0.02 in
20:22 56.1 °F 54.1 °F 30.30 in NNE 1.0 mph 8.0 mph 93 % 0.02 in
20:27 56.1 °F 54.1 °F 30.30 in ENE 1.0 mph 8.0 mph 93 % 0.01 in
20:32 56.1 °F 54.1 °F 30.30 in ENE 2.0 mph 8.0 mph 93 % 0.01 in
20:37 56.1 °F 54.5 °F 30.30 in Calm   7.0 mph 94 % 0.01 in
20:42 56.1 °F 54.5 °F 30.30 in ESE 1.0 mph 6.0 mph 94 % 0.00 in
20:47 56.1 °F 54.5 °F 30.30 in ENE 2.0 mph 5.0 mph 94 % 0.00 in
20:52 56.1 °F 54.5 °F 30.30 in ESE 2.0 mph 5.0 mph 94 % 0.00 in
20:57 56.1 °F 54.5 °F 30.30 in ENE 3.0 mph 5.0 mph 94 % 0.00 in
21:02 56.1 °F 54.5 °F 30.30 in ENE 2.0 mph 6.0 mph 94 % 0.00 in
21:07 56.3 °F 54.7 °F 30.30 in Calm   6.0 mph 94 % 0.00 in
21:12 56.3 °F 54.7 °F 30.30 in Calm   6.0 mph 94 % 0.00 in
21:17 56.3 °F 54.7 °F 30.30 in NNE 1.0 mph 5.0 mph 94 % 0.00 in
21:22 56.3 °F 54.7 °F 30.30 in East 1.0 mph 5.0 mph 94 % 0.00 in
21:27 56.3 °F 54.7 °F 30.29 in Calm   5.0 mph 94 % 0.00 in
21:32 56.3 °F 54.7 °F 30.29 in SE 1.0 mph 5.0 mph 94 % 0.00 in
21:38 56.5 °F 54.9 °F 30.29 in ENE 2.0 mph 6.0 mph 94 % 0.00 in
21:43 56.5 °F 54.9 °F 30.28 in Calm   6.0 mph 94 % 0.00 in
21:48 56.5 °F 54.9 °F 30.28 in ESE 1.0 mph 6.0 mph 94 % 0.00 in
21:53 56.5 °F 54.9 °F 30.28 in ESE 2.0 mph 7.0 mph 94 % 0.00 in
21:58 56.5 °F 54.9 °F 30.28 in SE 2.0 mph 7.0 mph 94 % 0.00 in
22:03 56.7 °F 55.0 °F 30.27 in Calm   7.0 mph 94 % 0.00 in
22:08 56.7 °F 55.0 °F 30.27 in ENE 4.0 mph 6.0 mph 94 % 0.00 in
22:13 56.7 °F 55.0 °F 30.27 in SW 1.0 mph 6.0 mph 94 % 0.00 in
22:18 56.7 °F 55.0 °F 30.27 in NNE 3.0 mph 6.0 mph 94 % 0.00 in
22:23 56.7 °F 55.0 °F 30.26 in East 1.0 mph 7.0 mph 94 % 0.00 in
22:28 56.8 °F 55.2 °F 30.25 in East 2.0 mph 7.0 mph 94 % 0.00 in
22:33 56.8 °F 55.2 °F 30.25 in East 4.0 mph 7.0 mph 94 % 0.00 in
22:38 56.8 °F 55.2 °F 30.25 in ENE 2.0 mph 7.0 mph 94 % 0.00 in
22:43 56.8 °F 55.2 °F 30.25 in ESE 3.0 mph 7.0 mph 94 % 0.00 in
22:48 57.0 °F 55.2 °F 30.24 in SE 3.0 mph 6.0 mph 94 % 0.00 in
22:53 57.0 °F 55.2 °F 30.23 in ENE 2.0 mph 7.0 mph 94 % 0.01 in
22:58 57.0 °F 55.2 °F 30.24 in Calm   7.0 mph 94 % 0.01 in
23:03 57.2 °F 55.4 °F 30.24 in SE 1.0 mph 7.0 mph 94 % 0.01 in
23:08 57.4 °F 55.6 °F 30.24 in ESE 3.0 mph 7.0 mph 94 % 0.01 in
23:13 57.6 °F 55.8 °F 30.23 in SE 7.0 mph 7.0 mph 94 % 0.01 in
23:18 57.9 °F 56.1 °F 30.24 in ESE 4.0 mph 8.0 mph 94 % 0.01 in
23:23 58.5 °F 56.7 °F 30.24 in Calm   10.0 mph 94 % 0.01 in
23:28 58.6 °F 56.8 °F 30.23 in ESE 10.0 mph 10.0 mph 94 % 0.01 in
23:33 58.8 °F 57.0 °F 30.22 in East 5.0 mph 10.0 mph 94 % 0.01 in
23:38 59.2 °F 57.2 °F 30.22 in ENE 9.0 mph 11.0 mph 93 % 0.01 in
23:43 59.4 °F 57.4 °F 30.22 in ENE 1.0 mph 11.0 mph 93 % 0.01 in
23:48 59.4 °F 57.4 °F 30.22 in SE 3.0 mph 11.0 mph 93 % 0.01 in
23:53 59.4 °F 57.0 °F 30.22 in North 1.0 mph 10.0 mph 92 % 0.00 in
23:58 59.5 °F 57.2 °F 30.22 in SE 5.0 mph 10.0 mph 92 % 0.00 in
Spring, Texas: Villages of Bridgestone
Compliments of Weather Underground - 3 mb

Script developed by  Jim McMurry - jmcmurry@mwt.net Adapted for the template by  Wim van der Kuil - Leuven-Template.eu

You find our weather info also at:

UK Metoffice

WeatherCloud

Weather Underground

Mid-South Weather Network

AWEKAS

Citizen Weather Observer Program (CWOP)

HAMweather, WeatherForYou, PWS Weather

Equipment we use:

Weather-station
Davis Vantage Vue

Weather-program
Meteohub

Weather-server
Debian 7.9 x86 (Guest)

Provider
DreamHost

Davis Vantage Vue

Meteohub

Debian 7.9 x86 (Guest)

DreamHost